Regional Weather Roundup
Issued by NWS

Home | Current Version | Previous Version | Text Only | Print | Product List | Glossary Off
Versions: 1 2 3 4 5 6 7 8 9 10 11 12 13 14 15 16 17 18 19 20 21 22 23 24 25 26 27 28 29 30 31 32 33 34 35 36 37 38 39 40 41 42 43 44 45 46 47 48 49 50

000
ASUS43 KMPX 291901
RWRMN
WEATHER ROUNDUP FOR MINNESOTA
NATIONAL WEATHER SERVICE TWIN CITIES/CHANHASSEN MN
200 PM CDT THU SEP 29 2016


NOTE: "FAIR" INDICATES FEW OR NO CLOUDS BELOW 12,000 FEET WITH NO
SIGNIFICANT WEATHER AND/OR OBSTRUCTIONS TO VISIBILITY. N/A MEANS
CURRENT SKY AND/OR WEATHER CONDITIONS ARE NOT AVAILABLE.

MNZ060>063-068>070-292000-
   Twin Cities Metro

CITY           SKY/WX    TMP DP  RH WIND       PRES   REMARKS
TWIN CITIES    MOSUNNY   64  50  60 VRB3      30.45F
ST PAUL        MOSUNNY   65  51  60 N8        30.45F
CRYSTAL        MOSUNNY   63  47  55 E5        30.44F
BLAINE         MOSUNNY   64  52  63 E8        30.45F
LAKEVILLE      SUNNY     63  50  63 CALM      30.44F
EDEN PRAIRIE   MOSUNNY   65  50  58 NE7       30.44F
LAKEVILLE      SUNNY     63  50  63 CALM      30.44F
SOUTH ST PAUL  SUNNY     65  50  58 NE3       30.44F
LAKE ELMO      FAIR      64  52  63 CALM      30.45F
$$
MNZ001>005-007-008-013>017-022>024-027-028-292000-
   Northwest Minnesota

CITY           SKY/WX    TMP DP  RH WIND       PRES   REMARKS
BEMIDJI        CLOUDY    59  45  60 SE7       30.48F
HALLOCK        PTSUNNY   63  46  55 SE8       30.45F
ROSEAU         MOSUNNY   63  48  59 S9        30.47F HAZE
WARROAD        CLOUDY    59  48  67 E9        30.49F
THIEF RVR FALL PTSUNNY   63  45  51 S10G16    30.47F
CROOKSTON      MOSUNNY   64  46  52 S8G16     30.46F
FOSSTON        PTSUNNY   64  43  45 S7        30.47F
DETROIT LAKES  PTSUNNY   59  45  58 SW5       30.48F
MOORHEAD       SUNNY     63  45  51 SE6       30.45F
PARK RAPIDS    CLOUDY    60  41  49 VRB3      30.48F
MAHNOMEN       FAIR      61  44  53 SE7       30.46F
$$
MNZ006-009>011-018-025>026-292000-
   North Central Minnesota

CITY           SKY/WX    TMP DP  RH WIND       PRES   REMARKS
BAUDETTE       CLOUDY    60  45  57 SE5       30.50F
FLAG ISLAND    PTSUNNY   59  46  63 S3        30.48F
INTL FALLS     CLOUDY    58  47  66 CALM      30.51F
WASKISH        CLOUDY    61  46  59 SE5       30.49F
BIG FORK       CLOUDY    59  46  63 S3        30.51F
GRAND RAPIDS   CLOUDY    58  47  66 E3        30.52S
ORR            CLOUDY    55  45  67 CALM      30.50S
COOK           CLOUDY    55  46  71 E5        30.52F
WALKER         CLOUDY    56  47  69 NE6       30.49F
$$
MNZ012-019>021-037-292000-
   Northeast Minnesota

CITY           SKY/WX    TMP DP  RH WIND       PRES   REMARKS
DULUTH         MOSUNNY   62  49  62 E13       30.50F
ELY            CLOUDY    55  45  67 CALM      30.52F
HIBBING        CLOUDY    57  46  66 SE7       30.51S
EVELETH        CLOUDY    58  44  61 CALM      30.51F
DULUTH HARBOR  CLOUDY    57  54  88 NE12      30.52F
TWO HARBORS    SUNNY     63  52  67 E9G16     30.50S
SILVER BAY     MOSUNNY   59  48  67 E8        30.50F
GRAND MARAIS     N/A     60  48  64 SE3       30.52F
G MARAIS ARPRT CLOUDY    55  45  67 CALM      30.53F
$$
MNZ029>031-032-039>041-046>048-054>057-064-292000-
   West Central Minnesota

CITY           SKY/WX    TMP DP  RH WIND       PRES   REMARKS
FERGUS FALLS   MOSUNNY   61  45  55 SE7       30.48F
MORRIS         PTSUNNY   64  46  52 E12       30.45F
ALEXANDRIA     CLOUDY    60  47  61 E8        30.48F
ELBOW LAKE     CLOUDY    60  47  60 SE7       30.47F
WADENA         CLOUDY    59  45  58 E5        30.48F
GLENWOOD       PTSUNNY   64  46  52 E10       30.47F
ORTONVILLE     PTSUNNY   64  46  52 SE3       30.44F
MADISON        PTSUNNY   64  50  59 E8        30.45F
WILLMAR        CLOUDY    63  50  63 N7        30.47F
$$
MNZ033>034-036-042>043-049>051-058-059-292000-
   Central Minnesota

CITY           SKY/WX    TMP DP  RH WIND       PRES   REMARKS
ST CLOUD       PTSUNNY   62  49  62 N9        30.46F
SAUK CENTRE    CLOUDY    60  46  61 NE7       30.48F
PAYNESVILLE    PTSUNNY   63  47  56 E6        30.47F
AITKIN         CLOUDY    63  45  51 NE5       30.48F
PINE RIVER     CLOUDY    59  46  63 SE3       30.51F
BRAINERD       CLOUDY    59  47  64 SE5       30.49F
STAPLES        CLOUDY    57  45  62 E3        30.48F
LONG PRAIRIE   CLOUDY    59  45  58 NE6       30.48F
LITTLE FALLS   CLOUDY    59  45  58 CALM      30.48F
LITCHFIELD     PTSUNNY   63  52  67 E6        30.47F
BUFFALO        PTSUNNY   64  48  56 N8        30.47F HAZE
MAPLE LAKE     PTSUNNY   63  51  66 NE7       30.47F
HUTCHINSON     MOSUNNY   64  51  62 NE8       30.47F
$$
MNZ037-044-045-052-053-292000-
   East Central Minnesota

CITY           SKY/WX    TMP DP  RH WIND       PRES   REMARKS
PRINCETON      PTSUNNY   64  52  63 NE7       30.47F
MORA           CLOUDY    61  48  63 CALM      30.49F
CAMBRIDGE      MOSUNNY   64  50  59 NE7       30.45F
MOOSE LAKE     CLOUDY    61  48  63 NE3       30.47F
HINCKLEY       CLOUDY    63  52  67 NE5       30.47F
CLOQUET        CLOUDY    59  45  58 E9        30.50S
MCGREGOR       CLOUDY    61  46  59 E5        30.49F
$$
MNZ071>073-080-081-089-090-097-098-292000-
   Southwest Minnesota

CITY           SKY/WX    TMP DP  RH WIND       PRES   REMARKS
MONTEVIDEO     CLOUDY    64  48  55 SE7       30.47F
GRANITE FALLS  CLOUDY    64  50  61 E7        30.47F
CANBY          PTSUNNY   65  48  53 E8        30.46F
MARSHALL       MOSUNNY   62  48  60 VRB5      30.45F
REDWOOD FALLS  PTSUNNY   64  47  53 VRB3      30.44F
OLIVIA         MOSUNNY   63  46  55 E6        30.44F
PIPESTONE      SUNNY     64  45  48 SE5       30.43F
WINDOM         MOSUNNY   64  48  55 E8        30.44F
WORTHINGTON    PTSUNNY   64  49  57 NE8       30.44F
JACKSON        SUNNY     64  46  52 E6        30.44F
TRACY          MOSUNNY   64  51  62 E5        30.45F
$$
MNZ065>067-074>077-082>085-091>093-292000-
   South Central Minnesota

CITY           SKY/WX    TMP DP  RH WIND       PRES   REMARKS
MANKATO        SUNNY     63  50  62 NE5       30.44F
NEW ULM        SUNNY     64  48  55 CALM      30.44F
ST JAMES       MOSUNNY   64  50  59 CALM      30.45F
FAIRMONT       SUNNY     65  50  58 VRB7      30.44F
GLENCOE        SUNNY     63  53  70 NE6       30.45F HAZE
FARIBAULT      SUNNY     64  52  63 N5        30.44F
OWATONNA       SUNNY     63  48  59 N5        30.44F
WASECA         SUNNY     63  46  55 NE9       30.45F
ALBERT LEA     SUNNY     66  46  48 NE8       30.42F
$$
MNZ078>079-086>088-094>096-292000-
   Southeast Minnesota

CITY           SKY/WX    TMP DP  RH WIND       PRES   REMARKS
ROCHESTER      SUNNY     65  52  62 N9        30.42F
RED WING       SUNNY     68  48  49 CALM      30.41F
STANTON        MOSUNNY   65  51  58 NE8       30.43F
DODGE CENTER   SUNNY     66  48  52 NE3       30.42F
WINONA         SUNNY     66  54  63 NW7       30.40F
AUSTIN         SUNNY     66  48  52 N7        30.40F
PRESTON        SUNNY     64  51  63 NE8       30.40F
$$
ABBREVIATIONS USED IN REMARKS
   TC - TEMPERATURES IN CELSIUS
  WCI - WIND CHILL INDEX
   HX - HEAT INDEX
  VSB - VISIBILITY
$$




USA.gov is the U.S. government's official web portal to all federal, state and local government web resources and services.